User: anonymous   Login
Location: Unspecified
(0.0000°N, 0.0000°E)
Time: 00:53:58
(UTC+00:00)
Language:

ONEWEB-0413 - Orbit

View from above orbital plane
View from above orbital plane
View from above satellite
View from above satellite

Ground track
Ground track

The orbit is defined by the following mean orbital elements,

1 50490U          26145.27108660 +.00000000 +00000-0 +73306-4 0 00002
2 50490  87.9159 340.0180 0001804  79.4630 280.6705 13.18687151    06
Epoch (UTC): 25 May 2026 06:30:21
Eccentricity: 0.0001804
inclination: 87.9159°
perigee height: 1188 km
apogee height: 1191 km
right ascension of ascending node: 340.0180°
argument of perigee: 79.4630°
revolutions per day: 13.18687151
mean anomaly at epoch: 280.6705°

The dashed part of the orbit path shows where the satellite is in the earth's shadow,  

DLR